Provo, UT

9:30 AM MDT on July 28, 2017 (GMT -0600)
Provo Municipal

Weather History for KPVU - February, 2014

Change the Weather History Date:

Wednesday, February 19, 2014

  Actual Average Record
Temperature  
Mean Temperature 36 °F -  
Max Temperature 44 °F 40 °F 56 °F (1983)
Min Temperature 28 °F 25 °F 3 °F (2008)
Degree Days  
Heating Degree Days 29    
Moisture  
Dew Point 22 °F    
Average Humidity 66    
Maximum Humidity 86    
Minimum Humidity 41    
Precipitation  
Precipitation 0.00 in - - ()
Sea Level Pressure  
Sea Level Pressure 29.93 in    
Wind  
Wind Speed 6 mph (NNW)    
Max Wind Speed 25 mph    
Max Gust Speed 34 mph    
Visibility 11 miles    
Events      
Averages and records for this station are not official NWS values.
T = Trace of Precipitation, MM = Missing Value Source: NWS Daily Summary

Daily Weather History Graph

Daily Weather History Graph

Search for Another Location

Airport or City:

Trip Planner

Search our weather history database for the weather conditions in past years. The results will help you decide how hot, cold, wet, or windy it might be!

Date:

Astronomy

Feb. 19, 2014 Rise Set
Actual Time 7:14 AM MST 6:07 PM MST
Civil Twilight 6:47 AM MST 6:34 PM MST
Nautical Twilight 6:15 AM MST 7:06 PM MST
Astronomical Twilight 5:43 AM MST 7:38 PM MST
Moon 11:04 PM MST (2/19) 9:22 AM MST (2/19)
Length of Visible Light 11h 47m
Length of Day
10h 52m
Waning Gibbous, 79% of the Moon is Illuminated
Feb 19
Waning Gibbous
Feb 22
Last Quarter
Mar 1
New
Mar 8
First Quarter
Mar 16
Full

Hourly Weather History & Observations

Time (MST) Temp. Windchill Dew Point Humidity Pressure Visibility Wind Dir Wind Speed Gust Speed Precip Events Conditions
12:15 AM 30.2 °F - 24.8 °F 80% 29.99 in 10.0 mi Calm Calm - N/A   Clear
12:35 AM 30.2 °F - 24.8 °F 80% 29.97 in 10.0 mi Calm Calm - N/A   Clear
12:55 AM 30.2 °F 25.4 °F 24.8 °F 80% 29.96 in 10.0 mi South 4.6 mph - N/A   Clear
1:15 AM 30.2 °F 25.4 °F 23.0 °F 75% 29.95 in 10.0 mi SSE 4.6 mph - N/A   Clear
1:35 AM 30.2 °F - 24.8 °F 80% 29.95 in 10.0 mi Calm Calm - N/A   Clear
1:55 AM 30.2 °F - 24.8 °F 80% 29.93 in 10.0 mi Calm Calm - N/A   Clear
2:15 AM 30.2 °F 26.7 °F 24.8 °F 80% 29.93 in 10.0 mi SE 3.5 mph - N/A   Clear
2:35 AM 30.2 °F - 24.8 °F 80% 29.92 in 10.0 mi Calm Calm - N/A   Clear
2:55 AM 30.2 °F 26.7 °F 24.8 °F 80% 29.92 in 10.0 mi SSE 3.5 mph - N/A   Clear
3:15 AM 30.2 °F 23.4 °F 26.6 °F 86% 29.90 in 10.0 mi SE 6.9 mph - N/A   Clear
3:35 AM 30.2 °F 24.3 °F 26.6 °F 86% 29.88 in 10.0 mi ENE 5.8 mph - N/A   Clear
3:55 AM 32.0 °F - 26.6 °F 80% 29.87 in 10.0 mi Calm Calm - N/A   Clear
4:15 AM 32.0 °F 27.5 °F 26.6 °F 80% 29.85 in 10.0 mi SE 4.6 mph - N/A   Partly Cloudy
4:35 AM 33.8 °F 30.8 °F 24.8 °F 70% 29.84 in 10.0 mi ENE 3.5 mph - N/A   Clear
4:55 AM 33.8 °F - 24.8 °F 70% 29.83 in 10.0 mi Calm Calm - N/A   Clear
5:15 AM 33.8 °F 29.6 °F 23.0 °F 65% 29.84 in 10.0 mi North 4.6 mph - N/A   Scattered Clouds
5:35 AM 32.0 °F 27.5 °F 24.8 °F 75% 29.83 in 10.0 mi North 4.6 mph - N/A   Overcast
5:55 AM 32.0 °F 28.7 °F 26.6 °F 80% 29.83 in 10.0 mi North 3.5 mph - N/A   Mostly Cloudy
6:15 AM 33.8 °F 28.6 °F 24.8 °F 70% 29.83 in 10.0 mi NNW 5.8 mph - N/A   Overcast
6:35 AM 33.8 °F 28.6 °F 28.4 °F 81% 29.83 in 10.0 mi ENE 5.8 mph - N/A   Overcast
6:49 AM 33.8 °F 29.6 °F 26.6 °F 75% 29.81 in 15.0 mi East 4.6 mph - N/A   Mostly Cloudy
7:57 AM 33.8 °F - 26.6 °F 75% 29.78 in 15.0 mi Calm Calm - N/A   Mostly Cloudy
8:47 AM 35.6 °F 30.7 °F 26.6 °F 70% 29.78 in 15.0 mi NW 5.8 mph - N/A   Mostly Cloudy
10:55 AM 42.8 °F 37.5 °F 24.8 °F 49% 29.79 in 10.0 mi WNW 9.2 mph 25.3 mph N/A   Overcast
11:55 AM 44.6 °F 36.4 °F 28.4 °F 53% 29.81 in 10.0 mi NW 20.7 mph 11.5 mph N/A   Mostly Cloudy
12:49 PM 37.4 °F 25.9 °F 26.6 °F 65% 29.82 in 10.0 mi NW 25.3 mph - N/A   Mostly Cloudy
1:50 PM 35.6 °F 25.5 °F 26.6 °F 70% 29.86 in 10.0 mi SW 17.3 mph 34.5 mph N/A   Overcast
2:54 PM 39.2 °F 29.6 °F 23.0 °F 52% 29.88 in 15.0 mi NW 19.6 mph 26.5 mph N/A   Scattered Clouds
3:50 PM 39.2 °F 29.8 °F 21.2 °F 49% 29.90 in 15.0 mi NNW 18.4 mph 25.3 mph N/A   Scattered Clouds
4:51 PM 37.4 °F 27.2 °F 17.6 °F 45% 29.93 in 10.0 mi NW 19.6 mph 24.2 mph N/A   Mostly Cloudy
5:01 PM 37.4 °F 28.2 °F 17.6 °F 45% 29.92 in 10.0 mi NW 16.1 mph 25.3 mph N/A   Mostly Cloudy
5:59 PM 35.6 °F 24.5 °F 14.0 °F 41% 29.95 in 10.0 mi NW 20.7 mph - N/A   Scattered Clouds
6:48 PM 30.2 °F 22.6 °F 15.8 °F 55% 29.99 in 10.0 mi NW 8.1 mph - N/A   Scattered Clouds
7:57 PM 30.2 °F 21.9 °F 15.8 °F 55% 30.02 in 15.0 mi NW 9.2 mph - N/A   Scattered Clouds
8:50 PM 30.2 °F 20.8 °F 15.8 °F 55% 30.04 in 15.0 mi NW 11.5 mph - N/A   Scattered Clouds
9:15 PM 30.2 °F 20.2 °F 17.6 °F 60% 30.06 in 10.0 mi NNW 12.7 mph - N/A   Partly Cloudy
9:35 PM 32.0 °F 24.2 °F 15.8 °F 51% 30.08 in 10.0 mi NNW 9.2 mph - N/A   Scattered Clouds
9:55 PM 32.0 °F 23.6 °F 15.8 °F 51% 30.09 in 10.0 mi NNW 10.4 mph - N/A   Overcast
10:15 PM 30.2 °F 20.8 °F 15.8 °F 55% 30.10 in 10.0 mi NNW 11.5 mph - N/A   Overcast
10:35 PM 30.2 °F 21.3 °F 15.8 °F 55% 30.11 in 10.0 mi NNW 10.4 mph - N/A   Mostly Cloudy
10:55 PM 30.2 °F 21.3 °F 15.8 °F 55% 30.11 in 10.0 mi NNW 10.4 mph 19.6 mph N/A   Partly Cloudy
11:15 PM 30.2 °F 20.2 °F 15.8 °F 55% 30.11 in 10.0 mi NW 12.7 mph - N/A   Clear
11:35 PM 28.4 °F 18.5 °F 15.8 °F 59% 30.12 in 10.0 mi NW 11.5 mph - N/A   Clear
11:55 PM 28.4 °F 18.5 °F 15.8 °F 59% 30.12 in 10.0 mi NW 11.5 mph - N/A   Clear